{"data":{"norad_id":58374,"epoch":"2026-09-20T01:17:06.821952Z","epoch_age_seconds":182171,"freshness":"STALE","line1":"1 58374U 23178A   26263.05355118  .00001945  00000+0  68697-4 0  9993","line2":"2 58374  53.1590 173.7123 0001281  69.8690 290.2451 15.34387737159709","mean_motion":15.34387737,"eccentricity":0.0001281,"inclination_deg":53.159,"raan_deg":173.7123,"arg_perigee_deg":69.869,"mean_anomaly_deg":290.2451,"bstar":6.8697e-5,"rev_number":15970,"period_min":93.848508123211,"perigee_km":461.86337236635,"apogee_km":463.61600497398,"semimajor_km":6840.8766886702,"source":"CELESTRAK","updated_at":"2026-09-21T09:00:33.864565Z"}}